Vorticity
nan nan nan nan nan nan nan nan nan nan nan nan nan nan nan nan nan nan nan nan nan nan nan nan nan nan nan nan nan nan nan nan nan nan nan nan nan nan nan nan nan nan nan nan nan nan nan nan nan nan nan nan nan nan nan nan nan nan nan nan nan nan nan nan nan nan nan nan nan nan nan nan nan nan nan nan nan nan nan nan nan nan nan nan nan nan
nan 7 6 8 12 11 7 6 9 9 9 7 7 7 7 7 7 7 6 6 8 8 8 8 8 7 3 -1 -1 3 7 9 10 11 11 11 10 10 9 8 7 7 7 7 8 8 9 10 10 10 10 10 11 11 11 11 11 11 11 11 11 11 11 11 11 11 10 10 10 9 9 9 9 9 8 8 8 8 8 8 8 8 8 8 8 nan
nan 7 7 7 9 11 8 7 8 8 9 9 8 8 8 8 7 7 7 7 8 9 9 8 8 8 5 1 -1 2 6 9 10 11 11 10 9 8 7 6 6 6 7 8 9 9 10 11 11 11 11 11 11 11 11 11 11 11 11 11 11 11 11 10 10 10 10 9 9 9 9 9 8 8 8 8 8 8 8 8 8 8 8 8 8 nan
nan 8 9 8 7 8 8 8 8 9 10 9 9 9 10 8 7 7 7 7 8 9 9 9 8 8 7 4 0 -0 4 8 10 11 11 10 8 7 6 5 5 6 7 9 10 10 11 11 11 11 11 11 11 11 11 11 11 11 11 11 10 10 10 10 10 9 9 9 9 9 8 8 8 8 8 8 9 8 8 8 7 8 7 8 8 nan
nan 9 9 9 8 7 8 10 11 11 10 8 8 9 9 9 8 7 8 8 8 9 10 10 9 8 8 5 -0 -2 2 7 9 10 10 8 7 6 4 4 5 6 8 9 10 11 11 11 11 11 11 11 11 11 11 11 11 10 10 10 10 9 9 9 9 9 9 9 9 9 8 8 8 8 8 8 8 8 8 7 7 7 8 8 8 nan
nan 9 9 9 9 8 8 10 11 12 11 8 8 8 8 9 8 8 8 8 9 9 10 10 9 9 8 3 -2 -1 4 7 9 9 9 7 6 5 4 5 6 7 9 10 10 10 10 10 10 10 10 10 10 10 10 10 10 10 10 9 9 9 9 9 9 9 9 9 9 9 9 8 8 8 8 8 8 8 8 8 8 8 8 8 8 nan
nan 8 9 10 9 9 9 9 10 11 11 10 8 8 9 9 9 9 8 8 9 9 10 10 11 10 8 4 2 4 7 8 9 9 8 7 6 5 5 5 7 8 9 10 10 10 10 10 10 10 10 10 10 10 10 10 10 9 9 9 9 9 10 10 9 9 9 9 9 9 9 8 8 8 8 9 8 8 8 8 8 8 8 8 9 nan
nan 8 9 10 9 9 8 7 8 10 11 11 9 9 9 10 10 10 10 10 9 9 9 10 11 11 10 8 8 9 9 9 10 9 7 7 6 5 5 6 8 9 9 9 9 9 9 9 9 9 9 9 10 10 10 9 9 9 9 9 9 10 10 10 10 9 9 9 9 9 9 9 9 9 9 9 9 9 9 9 9 9 9 9 9 nan
nan 8 9 9 10 9 8 6 7 8 10 11 10 10 10 10 10 10 11 11 11 10 9 8 10 11 11 11 11 10 9 9 9 7 6 5 3 1 2 6 8 9 8 8 8 8 8 8 8 8 9 9 9 9 9 9 8 8 8 9 9 10 10 10 9 9 9 9 9 9 9 9 9 9 10 10 10 10 10 10 10 10 10 10 10 nan
nan 10 9 9 10 10 9 7 7 7 10 11 11 11 10 9 10 11 11 11 11 10 8 6 7 9 11 12 11 10 9 7 6 5 5 3 1 1 5 8 8 6 6 8 8 8 8 8 8 8 9 9 9 8 8 8 8 8 9 9 9 10 10 9 9 9 9 10 10 10 10 10 10 10 10 11 11 11 11 11 11 11 11 10 10 nan
nan 9 9 9 9 10 9 9 8 8 9 10 10 9 8 8 9 9 10 10 9 10 8 8 8 8 9 10 11 11 10 9 9 7 7 6 7 9 12 12 10 8 10 11 10 9 9 8 8 9 9 9 8 7 8 8 8 8 9 9 9 9 9 9 9 9 10 10 10 10 11 11 11 11 11 11 11 11 11 11 11 11 11 10 10 nan
nan 8 9 9 9 9 9 9 10 10 10 10 9 8 7 8 9 9 8 7 6 7 9 10 10 10 10 10 10 10 10 10 10 10 10 11 13 14 16 15 14 15 16 16 15 13 9 9 10 10 9 8 7 7 8 9 8 9 9 9 9 9 9 9 10 10 11 11 11 11 11 11 11 11 11 11 11 11 11 11 10 10 10 10 10 nan
nan 10 10 9 9 9 9 9 10 10 10 10 10 9 8 8 9 9 9 7 6 7 8 10 11 12 13 12 11 10 9 9 10 9 9 11 13 14 14 13 14 15 16 17 17 12 7 10 12 12 9 8 7 7 9 9 8 8 9 9 9 9 10 10 10 11 11 11 11 11 11 11 11 11 11 11 10 10 10 10 9 9 9 9 9 nan
nan 10 11 11 10 9 9 10 10 9 9 9 9 9 8 8 8 8 8 8 9 9 9 8 9 12 13 12 11 11 10 9 9 8 8 10 12 12 11 10 10 11 12 13 12 8 7 12 14 11 9 10 10 10 9 8 7 8 8 9 9 10 10 11 11 11 11 11 11 11 11 11 11 11 10 10 10 9 9 9 9 9 9 9 9 nan
nan 10 11 10 9 9 8 9 9 9 9 8 8 8 9 9 9 7 7 8 10 11 11 11 12 13 12 10 11 10 9 8 7 6 7 12 14 14 11 9 9 10 10 10 9 7 11 14 14 11 10 7 5 4 3 5 5 7 9 9 10 11 11 11 11 11 11 11 11 11 11 10 10 10 10 9 9 9 9 9 9 9 9 9 10 nan
nan 11 10 9 8 8 9 9 8 8 9 9 9 9 9 9 9 8 7 8 10 11 10 11 14 15 13 12 11 10 8 6 5 4 7 12 14 15 11 7 8 9 9 9 9 10 13 12 11 9 6 -1 -2 -1 3 5 6 8 10 10 11 11 11 11 11 11 11 11 11 10 10 10 10 9 9 9 9 9 9 9 9 10 10 10 10 nan
nan 11 10 9 9 9 10 10 9 8 9 10 10 10 9 8 9 9 8 9 10 10 9 9 10 11 11 11 11 10 7 3 3 4 9 11 13 14 12 7 7 8 9 9 10 10 10 10 10 9 1 -6 -4 2 6 7 8 10 11 11 11 11 11 11 11 11 10 10 10 10 9 9 9 9 9 9 9 10 10 10 10 10 10 11 11 nan
nan 10 10 9 9 9 10 10 10 10 10 10 10 10 10 9 9 9 9 9 9 8 8 9 9 8 8 8 10 12 7 1 3 7 10 11 12 14 13 9 8 7 8 9 10 10 9 9 6 1 -9 -9 -0 5 8 10 10 11 11 11 11 11 11 10 10 10 10 9 9 9 9 9 9 9 10 10 10 10 10 10 11 11 11 11 11 nan
nan 10 9 9 10 10 10 10 10 10 10 10 10 9 9 9 9 9 9 9 8 7 8 8 9 9 9 8 11 13 7 2 6 10 12 12 12 13 12 10 8 8 7 8 10 11 10 8 2 -3 -6 0 6 8 10 10 11 11 11 11 11 11 10 10 10 9 9 9 9 9 9 9 10 10 10 10 10 11 11 11 11 11 11 11 11 nan
nan 9 8 9 9 10 10 11 10 10 9 9 9 8 8 9 9 9 9 8 8 8 8 8 9 9 9 8 9 9 7 7 10 12 12 12 12 12 11 9 8 8 7 10 11 10 9 8 7 4 5 6 6 8 9 10 10 10 11 11 10 10 10 9 9 8 8 9 9 9 9 10 10 10 10 11 11 11 11 11 11 11 11 11 11 nan
nan 9 8 8 8 8 9 11 10 10 8 8 8 8 9 10 9 9 9 8 8 8 8 8 9 10 8 7 7 8 8 10 12 13 12 12 12 12 11 8 7 6 8 11 11 10 10 10 9 6 2 1 4 6 8 10 10 11 10 10 10 9 8 8 8 8 8 8 9 9 10 10 10 10 10 10 10 10 11 11 11 11 11 11 11 nan
nan 11 11 9 7 7 8 9 9 9 8 7 8 8 10 9 8 8 9 9 9 9 9 9 9 9 8 9 10 11 12 13 13 11 10 10 10 11 10 7 6 6 9 11 11 11 10 9 7 3 -1 -1 3 7 9 10 11 11 10 9 9 8 7 7 8 8 8 9 9 9 10 10 10 10 10 10 10 10 11 11 11 11 11 11 11 nan
nan 12 13 11 8 6 7 8 8 8 9 9 9 9 9 8 7 8 10 11 10 11 11 12 11 11 11 12 12 12 13 15 14 12 10 9 9 10 8 6 6 8 10 10 9 9 9 9 8 6 4 3 7 8 9 10 10 10 9 8 7 7 7 7 8 8 9 9 9 9 10 10 10 10 10 10 10 10 11 11 11 11 11 11 11 nan
nan 11 12 11 8 6 6 8 8 10 11 11 11 11 10 9 9 10 11 11 11 11 12 12 12 12 13 13 12 11 12 13 13 11 9 9 8 7 6 6 7 9 10 10 9 8 9 10 10 11 9 7 8 8 9 10 9 8 7 6 6 6 7 8 8 9 9 9 9 9 10 9 9 9 10 10 10 10 11 11 11 11 11 11 11 nan
nan 10 11 12 11 8 8 8 9 11 13 12 11 11 10 10 12 13 13 11 11 10 11 11 12 12 13 13 12 11 10 11 11 10 9 9 8 7 7 8 9 9 10 10 10 9 10 10 11 13 11 10 9 8 9 8 7 6 5 5 6 6 7 8 9 9 9 10 10 9 9 9 9 9 10 10 10 10 11 11 10 10 10 11 12 nan
nan 13 13 13 12 11 10 11 11 13 16 16 13 11 10 11 12 12 11 10 10 9 11 12 12 12 12 11 11 10 10 10 11 11 9 8 7 8 9 9 8 7 8 10 9 9 8 10 12 13 11 11 11 11 8 6 4 3 4 5 6 7 8 9 9 9 9 9 9 9 9 9 9 10 10 10 10 10 10 10 10 10 11 15 19 nan
nan 15 14 14 14 13 13 13 13 13 14 15 15 14 13 11 10 9 8 9 9 10 11 11 11 12 12 11 10 9 10 11 12 12 10 7 7 8 9 9 8 7 9 11 10 8 9 12 13 13 12 12 12 11 8 5 3 3 5 7 7 8 9 10 10 9 9 9 9 9 9 10 10 10 10 10 10 10 10 10 10 12 16 24 29 nan
nan 12 12 12 11 11 11 12 12 12 12 12 13 17 17 13 9 8 9 11 10 10 9 8 9 10 10 9 10 11 12 12 12 11 9 6 6 7 9 8 8 8 11 13 12 12 16 16 15 14 12 11 11 11 10 7 6 8 9 9 9 10 10 10 9 9 9 9 9 9 10 10 10 10 10 10 10 10 9 10 12 18 27 32 31 nan
nan 7 7 6 6 6 7 8 9 11 12 12 12 15 17 14 9 10 12 12 10 8 7 8 8 8 8 9 11 13 13 12 12 11 7 4 6 8 8 8 9 9 12 14 15 17 19 17 15 14 12 10 10 10 10 11 13 15 15 13 14 13 11 10 9 8 8 9 9 10 10 10 10 10 10 10 10 10 9 10 18 27 32 28 21 nan
nan 4 4 2 3 5 7 8 7 7 9 10 11 14 16 14 11 11 13 11 8 7 8 8 8 7 7 10 13 14 14 13 12 10 4 2 6 8 9 8 9 10 11 13 14 15 15 16 14 11 9 8 9 9 10 12 16 18 17 17 18 16 10 8 8 8 9 10 10 10 10 10 10 10 10 10 9 9 9 13 22 30 28 19 14 nan
nan 7 6 5 5 6 8 9 8 7 8 10 11 13 13 13 11 11 12 9 7 7 8 8 7 6 7 10 11 12 12 13 12 8 2 3 7 8 8 9 10 10 11 11 10 10 12 14 12 9 6 7 9 10 10 11 13 14 13 16 16 12 7 8 10 11 13 12 11 11 10 10 10 10 10 10 10 10 10 14 21 25 21 14 12 nan
nan 9 10 9 9 9 9 10 10 9 9 10 11 11 11 12 11 10 10 8 7 8 8 8 7 7 7 8 8 8 9 10 9 6 3 7 9 9 9 9 9 10 10 10 9 8 8 8 8 7 7 9 11 12 11 11 12 11 11 13 12 7 6 11 14 16 16 13 14 14 12 11 11 10 10 10 10 10 10 13 17 20 16 12 11 nan
nan 10 10 10 10 10 10 10 10 10 10 11 10 10 11 12 12 11 10 8 8 7 7 7 7 7 8 9 8 8 8 8 5 3 7 11 11 10 8 8 8 9 10 11 11 9 7 4 5 6 8 11 12 12 12 13 12 12 12 11 9 6 9 14 17 18 15 15 17 17 16 16 15 13 12 12 12 11 10 11 12 13 12 12 10 nan
nan 11 10 10 11 10 10 10 10 10 10 10 10 10 10 11 11 12 11 10 9 8 8 7 7 7 8 9 9 9 9 8 5 4 9 13 10 9 8 8 9 9 10 11 11 11 9 5 4 5 8 10 11 12 13 13 12 13 13 9 7 7 11 14 15 15 14 16 17 16 17 18 17 16 16 14 12 9 7 7 8 9 11 11 9 nan
nan 10 10 10 10 10 10 10 10 10 11 11 11 11 11 11 11 12 12 11 10 9 8 7 7 7 8 7 7 8 8 7 5 5 8 11 10 9 9 10 9 9 9 9 9 10 9 6 5 6 7 9 11 13 13 12 11 11 10 9 8 7 10 11 12 12 14 14 13 13 15 15 15 15 13 7 5 3 4 7 8 9 12 11 10 nan
nan 10 10 10 9 9 10 10 10 11 11 12 12 11 11 11 11 11 12 12 11 10 8 8 8 7 6 6 6 5 6 5 4 5 8 10 9 9 9 9 7 7 8 8 8 8 7 7 7 7 9 11 12 13 12 10 9 9 9 10 10 10 11 10 10 11 12 10 9 10 10 10 11 10 5 -0 2 5 8 11 12 13 13 12 11 nan
nan 10 10 10 10 10 10 11 10 10 11 11 10 10 10 10 10 11 11 11 10 10 10 11 10 9 5 3 4 4 4 3 4 5 8 9 9 9 8 7 6 7 8 7 7 7 7 7 8 10 13 12 9 7 6 8 8 9 9 10 11 12 12 12 12 11 9 7 7 7 7 9 9 9 5 6 13 18 19 21 21 17 15 16 13 nan
nan 10 11 11 11 10 10 10 9 9 10 9 9 9 10 11 11 10 11 11 11 10 10 11 12 13 11 6 4 3 3 3 4 6 9 10 10 9 7 7 7 9 8 8 7 7 7 8 9 12 13 10 7 4 6 8 8 8 9 10 11 12 12 12 12 10 9 8 8 7 9 11 11 12 11 16 20 21 22 22 18 15 18 21 19 nan
nan 10 10 10 10 10 9 8 8 9 9 9 9 10 11 12 12 13 12 12 12 12 11 10 10 12 15 13 11 9 8 10 11 11 13 13 12 10 8 7 8 10 9 10 9 9 9 8 7 7 7 7 8 10 12 10 8 7 8 12 14 14 11 10 10 11 11 10 10 11 13 13 12 11 10 12 12 11 12 13 12 14 19 21 19 nan
nan 10 9 9 9 9 8 7 8 9 9 9 10 12 12 12 13 14 14 14 14 15 15 13 11 12 14 15 16 15 14 13 14 14 16 13 11 9 9 8 8 9 10 10 10 10 8 7 6 5 6 6 6 7 8 7 5 3 8 13 12 9 8 8 10 12 12 10 10 10 10 9 8 8 8 8 8 9 11 9 9 10 13 15 16 nan
nan 9 8 8 9 9 10 10 10 10 10 11 12 13 12 12 12 12 12 13 14 15 15 15 14 13 14 16 16 16 15 13 13 12 11 10 8 7 8 8 8 9 10 9 9 9 8 7 7 8 9 8 7 8 7 5 3 5 12 13 8 4 5 9 13 14 11 9 8 7 5 7 9 10 10 10 12 11 9 6 6 6 10 13 12 nan
nan 9 9 8 9 10 10 10 11 12 13 13 12 11 11 11 10 9 9 10 11 11 11 11 11 11 13 15 16 16 16 16 15 13 11 12 11 9 7 7 7 8 9 10 10 9 9 9 9 9 9 10 10 10 8 7 8 11 13 10 8 9 14 17 17 12 8 7 8 8 10 12 12 11 10 11 11 10 9 7 5 5 10 12 11 nan
nan 10 10 10 10 9 9 11 12 13 13 12 11 11 11 11 10 9 9 9 9 9 10 11 10 10 11 12 13 15 16 17 16 14 14 13 13 11 9 7 6 6 7 9 11 11 12 11 10 10 10 10 9 7 7 9 11 12 11 9 10 14 16 14 10 7 6 8 10 12 12 12 11 9 10 10 11 11 12 10 11 14 14 12 11 nan
nan 10 10 11 11 11 12 12 12 11 11 10 10 11 12 11 10 10 10 9 9 10 11 12 11 11 10 11 12 12 13 14 15 16 16 14 12 9 9 10 9 8 7 7 8 9 11 13 12 11 11 10 9 8 9 9 10 10 10 10 11 11 7 3 3 5 9 12 12 10 10 10 10 10 10 11 12 13 12 13 15 16 15 13 11 nan
nan 10 10 11 11 11 10 10 10 11 11 10 11 12 12 12 11 11 10 9 10 11 11 10 10 10 10 10 12 12 13 13 14 15 16 16 15 14 13 12 12 12 10 8 7 6 8 10 11 11 11 11 10 9 9 9 9 9 9 10 12 12 8 6 6 8 10 10 9 9 10 10 9 10 11 12 11 10 9 10 11 12 13 12 11 nan
nan 9 10 10 9 8 8 10 11 11 11 11 12 12 12 11 12 11 10 9 9 10 10 10 9 8 8 9 10 11 11 11 12 13 14 16 18 19 16 14 12 11 11 11 9 8 7 7 8 9 10 12 12 12 11 10 11 11 11 11 12 13 13 12 12 11 10 9 9 10 11 11 11 11 10 10 10 11 11 11 11 10 10 10 11 nan
nan 9 10 10 9 9 10 10 11 11 11 11 12 12 11 11 10 10 10 10 9 9 10 11 10 8 7 8 9 9 8 9 11 11 11 13 14 15 15 15 14 12 10 10 10 11 10 9 9 9 10 12 13 14 14 14 13 12 11 12 12 12 12 12 11 11 10 9 10 10 11 12 11 10 9 10 11 12 12 12 12 12 11 11 11 nan
nan 9 10 10 10 10 10 11 11 11 11 11 12 12 11 9 7 9 12 11 10 9 10 11 9 9 9 9 9 7 7 9 11 10 10 12 13 13 13 13 13 13 12 12 13 15 16 16 14 12 11 11 11 11 12 13 13 12 11 11 11 11 11 10 10 10 10 9 9 10 10 10 9 9 11 12 11 10 10 12 13 13 12 12 12 nan
nan 9 9 10 10 10 10 11 10 10 10 10 11 11 11 8 8 14 15 12 11 10 10 8 8 8 9 9 9 8 9 11 11 10 10 11 11 11 11 11 11 11 13 15 17 18 19 20 20 18 13 9 7 8 10 11 12 12 12 11 11 10 11 10 10 10 10 9 10 11 10 10 10 10 11 11 9 8 10 12 13 13 14 13 11 nan
nan 10 9 9 9 10 11 10 10 9 9 9 10 11 11 11 13 14 13 11 11 10 9 8 8 8 8 9 9 9 10 11 11 10 10 10 10 10 10 9 9 10 12 14 14 15 17 19 21 22 18 12 9 8 10 10 10 10 11 11 11 10 10 9 10 9 8 8 10 12 12 12 12 12 12 10 9 10 11 12 12 12 13 11 9 nan
nan nan nan nan nan nan nan nan nan nan nan nan nan nan nan nan nan nan nan nan nan nan nan nan nan nan nan nan nan nan nan nan nan nan nan nan nan nan nan nan nan nan nan nan nan nan nan nan nan nan nan nan nan nan nan nan nan nan nan nan nan nan nan nan nan nan nan nan nan nan nan nan nan nan nan nan nan nan nan nan nan nan nan nan nan nan
CAPE
nan nan nan nan nan nan nan nan nan nan nan nan nan nan nan nan nan nan nan nan nan nan nan nan nan nan nan nan nan nan nan nan nan nan nan nan nan nan nan nan nan nan nan nan nan nan nan 0 0 0 1 1 2 2 3 5 5 7 11 12 12 14 16 18 18 18 16 17 18 18 16 13 10 10 9 10 10 10 12 16 16 21 26 33 33 42
nan nan nan nan nan nan nan nan nan nan nan nan nan nan nan nan nan nan nan nan nan nan nan nan nan nan nan nan nan nan nan nan nan nan nan nan nan nan nan nan nan nan nan nan nan nan 0 0 0 0 1 1 2 2 3 5 5 7 8 11 11 12 13 15 15 16 16 16 12 12 10 9 8 8 8 11 14 14 18 23 23 27 30 39 39 47
nan nan nan nan nan nan nan nan nan nan nan nan nan nan nan nan nan nan nan nan nan nan nan nan nan nan nan nan nan nan nan nan nan nan nan nan nan nan nan nan nan nan nan 0 0 0 0 0 0 1 1 2 2 2 3 5 5 6 6 7 7 9 11 12 12 11 12 12 10 10 7 7 7 7 11 16 19 19 23 26 26 30 35 43 43 54
nan nan nan nan nan nan nan nan nan nan nan nan nan nan nan nan nan nan nan nan nan nan nan nan nan nan nan nan nan nan nan nan nan nan nan nan nan nan nan nan nan nan nan 0 0 0 1 1 1 1 2 2 3 3 4 5 5 4 5 5 5 5 6 7 7 7 7 7 5 5 5 7 10 10 14 19 21 21 23 26 26 31 38 46 46 58
nan nan nan nan nan nan nan nan nan nan nan nan nan nan nan nan nan nan nan nan nan nan nan nan nan nan nan nan nan nan nan nan nan nan nan nan nan nan nan nan nan nan nan 0 0 0 1 2 2 3 3 3 3 3 4 4 4 4 4 4 4 5 5 5 5 5 5 5 5 5 6 9 12 12 16 18 22 22 25 28 28 32 40 51 51 60
nan nan 0 nan nan nan nan nan nan nan nan nan nan nan nan nan nan nan nan nan nan nan nan nan nan nan nan nan nan nan nan nan nan nan nan nan nan nan nan nan nan nan nan 0 0 0 2 2 2 3 3 3 3 3 3 4 4 4 4 4 4 4 4 4 4 4 4 4 5 5 8 11 12 12 17 20 24 24 28 30 30 35 40 51 51 60
nan nan nan nan nan nan nan nan nan nan nan nan nan nan nan nan nan nan nan nan nan nan nan nan nan nan nan nan nan nan nan nan nan nan nan nan nan nan nan nan nan nan nan 0 0 1 2 2 2 2 2 2 3 3 3 4 4 4 3 4 4 4 4 3 3 4 5 6 7 7 10 11 13 13 15 19 24 24 29 33 33 37 40 47 47 56
nan nan nan nan nan nan nan nan nan nan nan nan nan nan nan nan nan nan nan nan nan nan nan nan nan nan nan nan nan nan nan nan nan nan nan nan nan nan nan nan nan nan nan nan nan 0 1 1 1 1 2 2 3 3 3 2 2 2 2 2 2 2 3 5 5 7 10 12 13 13 15 16 16 16 18 17 20 20 25 33 33 42 44 45 45 48
nan nan nan nan nan nan nan nan nan nan nan nan nan nan nan nan nan nan nan nan nan nan nan nan nan nan nan nan nan nan nan nan nan nan nan nan nan nan nan nan nan nan nan nan nan nan nan nan nan 0 0 1 2 2 1 1 1 0 0 1 1 2 4 7 7 10 13 15 15 15 17 19 20 20 20 22 21 21 23 31 31 39 44 48 48 50
nan nan nan nan nan nan nan nan nan nan nan nan nan nan nan nan nan nan nan nan nan nan nan nan nan nan nan nan nan nan nan nan nan nan nan nan nan nan nan nan nan nan nan nan nan nan nan nan nan nan nan 0 0 0 0 nan nan nan 0 1 1 3 6 9 9 13 15 16 19 19 20 21 23 23 23 25 23 23 25 29 29 35 42 48 48 51
nan nan nan nan nan nan nan nan nan nan nan nan nan nan nan nan nan nan nan nan nan nan nan nan nan nan nan nan nan nan nan nan nan nan nan nan nan nan nan nan nan nan nan nan nan nan nan nan nan nan nan nan nan nan nan nan nan nan 0 2 2 4 8 12 12 16 18 19 21 21 22 23 26 26 27 28 28 28 29 30 30 32 36 44 44 51
nan nan nan nan nan nan nan nan nan nan nan nan nan nan nan nan nan nan nan nan nan nan nan nan nan nan nan nan nan nan nan nan nan nan nan nan nan nan nan nan nan nan nan nan nan nan nan nan nan nan nan nan nan nan nan nan nan nan 1 3 3 7 10 14 14 16 17 20 22 22 25 27 28 28 30 30 32 32 33 32 32 35 36 42 42 50
nan nan nan nan nan nan nan nan nan nan nan nan nan nan nan nan nan nan nan nan nan nan nan nan nan nan nan nan nan nan nan nan nan nan nan nan nan nan nan nan nan nan nan nan nan nan nan nan nan nan nan nan nan nan nan nan nan 0 3 7 7 11 13 15 15 17 18 20 24 24 27 29 30 30 32 35 37 37 36 36 36 37 40 41 41 48
nan nan nan nan nan nan nan nan nan nan nan nan nan nan nan nan nan nan nan nan nan nan nan nan nan nan nan nan nan nan nan nan nan nan nan nan nan nan nan nan nan nan nan nan nan nan nan nan nan nan nan nan nan nan nan nan nan 2 6 10 10 12 14 15 15 16 18 21 24 24 27 28 30 30 32 34 36 36 37 37 37 38 39 40 40 44
nan nan nan nan nan nan nan nan nan nan nan nan nan nan nan nan nan nan nan nan nan nan nan nan nan nan nan nan nan nan nan nan nan nan nan nan nan nan nan nan nan nan nan nan nan nan nan nan nan nan nan nan nan nan nan 1 1 8 9 12 12 14 14 16 16 17 19 22 24 24 26 28 29 29 30 32 35 35 34 34 34 36 37 39 39 43
nan nan nan nan nan nan nan nan nan nan nan nan nan nan nan nan nan nan nan nan nan nan nan nan nan nan nan nan nan nan nan nan nan nan nan nan nan nan nan nan nan nan nan nan nan nan nan nan nan nan nan nan nan nan 0 5 5 9 11 13 13 14 15 15 15 17 18 21 23 23 24 26 27 27 29 30 31 31 32 32 32 32 35 37 37 40
nan nan nan nan nan nan nan nan nan nan nan nan nan nan nan nan nan nan nan nan nan nan nan nan nan nan nan nan nan nan nan nan nan nan nan nan nan nan nan nan nan nan nan nan nan nan nan nan nan nan nan nan 0 0 1 5 5 9 12 13 13 14 15 16 16 16 18 19 22 22 23 25 25 25 27 27 29 29 29 31 31 32 33 37 37 39
nan nan nan nan nan nan nan nan nan nan nan nan nan nan nan nan nan nan nan nan nan nan nan nan nan nan nan nan nan nan nan nan nan nan nan nan nan nan nan nan nan nan nan nan nan nan nan nan nan nan nan nan 1 1 2 5 5 8 11 12 12 13 15 15 15 17 17 20 21 21 22 24 24 24 27 27 28 28 30 33 33 34 34 39 39 40
nan nan nan nan nan nan nan nan nan nan nan nan nan nan nan nan nan nan nan nan nan nan nan nan nan nan nan nan nan nan nan nan nan nan nan nan nan nan nan nan nan nan nan nan nan nan nan nan nan nan nan nan 0 0 2 5 5 7 9 10 10 12 14 15 15 16 17 20 21 21 23 24 25 25 27 26 28 28 30 32 32 36 37 39 39 42
nan nan nan nan nan nan nan nan nan nan nan nan nan nan nan nan nan nan nan nan nan nan nan nan nan nan nan nan nan nan nan nan nan nan nan nan nan nan nan nan nan nan nan nan nan nan nan nan nan nan nan nan 0 0 1 3 3 5 6 8 8 10 13 15 15 16 18 20 21 21 22 23 24 24 25 27 29 29 29 34 34 35 37 39 39 43
nan nan nan nan nan nan nan nan nan nan nan nan nan nan nan nan nan nan nan nan nan nan nan nan nan nan nan nan nan nan nan nan nan nan nan nan nan nan nan nan nan nan nan nan nan nan nan nan nan nan nan nan 0 0 1 2 2 3 5 7 7 11 12 14 14 16 19 21 21 21 22 21 22 22 23 24 28 28 30 33 33 38 39 42 42 44
nan nan nan nan nan nan nan nan nan nan nan nan nan nan nan nan nan nan nan nan nan 0 0 0 0 nan nan nan nan nan nan nan nan nan nan nan nan nan nan nan nan nan nan nan nan nan nan nan nan nan nan nan 0 0 0 1 1 2 5 7 7 9 11 13 13 16 17 19 19 19 21 22 21 21 24 24 28 28 30 32 32 36 39 40 40 42
nan nan nan nan nan nan nan nan nan nan nan nan nan nan nan nan nan nan nan nan nan 0 1 nan nan nan nan nan nan nan nan nan nan nan nan nan nan nan nan nan nan nan nan nan nan nan nan nan nan nan nan nan nan nan nan 0 0 1 4 6 6 7 9 12 12 14 17 18 20 20 20 20 21 21 22 24 28 28 29 30 30 33 35 37 37 40
nan nan nan nan nan nan nan nan nan nan nan nan nan nan nan nan nan nan nan nan nan nan nan nan nan nan nan nan nan nan nan nan nan nan nan nan nan nan nan nan nan nan nan nan nan nan nan nan nan nan nan nan nan nan nan 0 0 1 3 5 5 6 9 11 11 13 16 17 18 18 19 21 22 22 21 24 27 27 28 29 29 31 34 33 33 35
nan nan nan nan nan nan nan nan nan nan nan nan nan nan nan nan nan nan nan nan nan nan nan nan nan nan nan nan nan nan nan nan nan nan nan nan nan nan nan nan nan nan nan nan nan nan nan nan nan nan nan nan nan nan nan nan nan 0 2 4 4 6 8 11 11 12 14 16 17 17 18 20 21 21 23 23 24 24 25 28 28 28 30 31 31 31
nan nan nan nan nan nan 0 1 1 1 2 nan nan nan nan nan nan nan nan nan nan nan nan nan nan nan nan nan nan nan nan nan nan nan nan nan nan nan nan nan nan nan nan nan nan nan nan nan nan nan nan nan nan nan nan nan nan 0 2 3 3 6 8 9 9 11 12 13 15 15 17 20 21 21 22 23 23 23 24 24 24 24 25 26 26 27
1 nan 0 0 0 1 1 1 2 2 3 3 nan nan nan nan nan nan nan nan nan nan nan nan nan nan nan nan nan nan nan nan nan nan nan nan nan nan nan nan nan nan nan nan nan nan nan nan nan nan nan nan nan nan nan nan nan 0 1 3 3 4 6 8 8 9 10 11 13 13 15 18 20 20 21 22 23 23 22 22 22 23 24 25 25 24
0 0 0 1 1 1 0 nan 0 0 2 4 9 9 nan nan nan nan nan nan nan nan nan nan nan nan nan nan nan nan nan nan nan nan nan nan nan nan nan nan nan nan nan nan nan nan nan nan nan nan nan nan nan nan nan nan nan 0 1 2 2 3 4 5 5 6 8 9 12 12 14 16 18 18 21 20 22 22 22 22 22 23 24 15 15 4
nan nan 0 0 0 0 nan nan 0 0 2 3 7 7 nan nan nan nan nan nan nan nan nan nan nan nan nan nan nan nan nan nan nan nan nan nan nan nan nan nan nan nan nan nan nan nan nan nan nan nan nan nan nan nan nan nan nan nan nan 0 0 1 2 3 3 4 6 8 9 9 12 14 17 17 18 18 19 19 20 21 21 22 17 9 9 2
nan nan nan nan nan nan nan nan nan nan 2 2 3 3 nan nan nan nan nan nan nan nan nan nan nan nan nan nan nan nan nan nan nan nan nan nan nan nan nan nan nan nan nan nan nan nan nan nan nan nan nan nan nan nan nan nan nan nan nan nan nan nan 0 2 2 3 5 6 8 8 10 13 15 15 14 16 17 17 18 20 20 16 7 3 3 1
nan nan nan nan nan nan nan nan nan nan nan 2 0 0 nan nan nan nan nan nan nan nan nan nan nan nan nan nan nan nan nan nan nan nan nan nan nan nan nan nan nan nan nan nan nan nan nan nan nan nan nan nan nan nan nan nan nan nan nan nan nan nan nan 0 0 2 4 5 7 7 9 10 12 12 12 12 14 14 17 21 21 17 4 1 1 1
nan nan nan nan nan nan nan nan nan nan nan nan nan nan nan nan nan nan nan nan nan nan nan nan nan nan nan nan nan nan nan nan nan nan nan nan nan nan nan nan nan nan nan nan nan nan nan nan nan nan nan nan nan nan nan nan nan nan nan nan nan nan nan nan nan nan nan 2 4 4 5 6 7 7 7 9 11 11 14 18 18 18 6 1 1 3
nan nan nan nan nan nan nan nan nan nan nan nan nan nan nan nan nan nan nan nan nan nan nan nan nan nan nan nan nan nan nan nan nan nan nan nan nan nan nan nan nan nan nan nan nan nan nan nan nan nan nan nan nan nan nan nan nan nan nan nan nan nan nan nan nan nan nan nan nan nan 1 2 4 4 5 7 9 9 12 16 16 20 19 2 2 2
nan nan nan nan nan nan nan nan nan nan nan nan nan nan nan nan nan nan nan nan nan nan nan nan nan nan nan nan nan nan nan nan nan nan nan nan nan nan nan nan nan nan nan nan nan nan nan nan nan nan nan nan nan nan nan nan nan nan nan nan nan nan nan nan nan nan nan nan nan nan nan nan nan nan 1 5 8 8 11 14 14 17 19 11 11 4
nan nan nan nan nan nan nan nan nan nan nan nan nan nan nan nan nan nan nan nan nan nan nan nan nan nan nan nan nan nan nan nan nan nan nan nan nan nan nan nan nan nan nan nan nan nan nan nan nan nan nan nan nan nan nan nan nan nan nan nan nan nan nan nan nan nan nan nan nan nan nan nan nan nan nan 1 6 6 10 12 12 13 16 19 19 13
nan nan nan nan nan nan nan nan nan nan nan nan nan nan nan nan nan nan nan nan nan nan nan nan nan nan nan nan nan nan nan nan nan nan nan nan nan nan nan nan nan nan nan nan nan nan nan nan nan nan nan nan nan nan nan nan nan nan nan nan nan nan nan nan nan nan nan nan nan nan nan nan nan nan nan 3 7 7 9 9 9 11 12 14 14 16
nan nan nan nan nan nan nan nan nan nan nan nan nan nan nan nan nan nan nan nan nan nan nan nan nan nan nan nan nan nan nan nan nan nan nan nan nan nan nan nan nan nan nan nan nan nan nan nan nan nan nan nan nan nan nan nan nan nan nan nan nan nan nan nan nan nan nan nan nan nan nan nan nan nan nan 4 3 3 5 9 9 8 11 12 12 13
nan nan nan nan nan nan nan nan nan nan nan nan nan nan nan nan nan nan nan nan nan nan nan nan nan nan nan nan nan nan nan nan nan nan nan nan nan nan nan nan nan nan nan nan nan nan nan nan nan nan nan nan nan nan nan nan nan nan nan nan nan nan nan nan nan nan nan nan nan nan nan nan nan nan nan nan nan nan nan nan nan 1 7 7 7 9
nan nan nan nan nan nan nan nan nan nan nan nan nan nan nan nan nan nan nan nan nan nan nan nan nan nan nan nan nan nan nan nan nan nan nan nan nan nan nan nan nan nan nan nan nan nan nan nan nan nan nan nan nan nan nan nan nan nan nan nan nan nan nan nan nan nan nan nan nan nan nan nan nan nan nan nan nan nan nan nan nan nan nan nan nan 2
nan nan nan nan nan nan nan nan nan nan nan nan nan nan nan nan nan nan nan nan nan nan nan nan nan nan nan nan nan nan nan nan nan nan nan nan nan nan nan nan nan nan nan nan nan nan nan nan nan nan nan nan nan nan nan nan nan nan 0 nan nan nan nan nan nan nan nan nan nan nan nan nan nan nan nan nan nan nan nan nan nan nan nan nan nan nan
nan nan nan nan nan nan nan nan nan nan nan nan nan nan nan nan nan nan nan nan nan nan nan nan nan nan nan nan nan nan nan nan nan nan nan nan nan nan nan nan nan nan nan nan nan nan nan nan nan nan nan nan nan nan nan nan nan 1 4 nan nan nan nan nan nan nan nan nan nan nan nan nan 0 0 nan nan nan nan nan nan nan nan nan nan nan nan
nan nan nan nan nan nan nan nan nan nan nan nan nan nan nan nan nan nan nan nan nan nan nan nan nan nan nan nan nan nan nan nan nan nan nan nan nan nan nan nan nan nan nan nan nan nan nan nan nan nan nan nan nan nan nan nan nan nan 0 nan nan nan nan nan nan nan nan nan nan nan 0 nan nan nan nan nan nan nan nan nan nan 0 2 nan nan nan
nan nan nan nan nan nan nan nan nan nan nan nan nan nan nan nan nan nan nan nan nan nan nan nan nan nan nan nan nan nan nan nan nan nan nan nan nan nan nan nan nan nan nan nan nan nan nan nan nan nan nan nan nan nan nan nan nan nan nan nan nan nan nan nan nan nan nan nan nan nan nan nan nan nan nan nan nan nan nan nan nan 5 4 nan nan nan
nan nan nan nan nan nan nan nan nan nan nan nan nan nan nan nan nan nan nan nan nan nan nan nan nan nan nan nan nan nan nan nan nan nan nan nan nan nan nan nan nan nan nan nan nan nan nan nan nan nan nan nan nan nan nan nan nan nan nan nan nan nan nan nan nan nan nan nan nan nan nan nan nan nan nan nan nan nan nan nan nan nan nan nan nan nan
nan nan nan nan nan nan nan nan nan nan nan nan nan nan nan nan nan nan nan nan nan nan nan nan nan nan nan nan nan nan nan nan nan nan nan nan nan nan nan nan nan nan nan nan nan nan nan nan nan nan nan nan nan nan nan nan nan nan nan nan nan nan nan nan nan nan nan nan nan nan nan nan nan nan nan nan nan nan nan nan nan nan nan nan nan nan
nan nan nan nan nan nan nan nan nan nan nan nan nan nan nan nan nan nan nan nan nan nan nan nan nan nan nan nan nan nan nan nan nan nan nan nan nan nan nan nan nan nan nan nan nan nan nan nan nan nan nan nan nan nan nan nan nan nan nan nan nan nan nan nan nan nan nan nan nan nan nan nan nan nan nan nan nan nan nan nan nan nan nan nan nan nan
nan nan nan nan nan nan nan nan nan nan nan nan nan nan nan nan nan nan nan nan nan nan nan nan nan nan nan nan nan nan nan nan nan nan nan nan nan nan nan nan nan nan nan nan nan nan nan nan nan nan nan nan nan nan nan nan nan nan nan nan nan nan nan nan nan nan nan nan nan nan nan nan nan nan nan nan nan nan nan nan nan nan nan nan nan nan
nan nan nan nan nan nan nan nan nan nan nan nan nan nan nan nan nan nan nan nan nan nan nan nan nan nan nan nan nan nan nan nan nan nan nan nan nan nan nan nan nan nan nan nan nan 0 nan nan nan nan nan nan nan nan nan nan nan nan nan nan nan nan nan nan nan nan nan nan nan nan nan nan nan nan nan nan nan nan nan nan nan nan nan nan nan nan
nan nan nan nan nan nan nan nan nan nan nan nan nan nan nan nan nan nan nan nan nan nan nan nan nan nan nan nan nan nan nan nan nan nan nan nan nan nan nan nan nan nan nan nan nan nan nan nan nan nan nan nan nan nan nan nan nan nan nan nan nan nan nan nan nan nan nan nan nan nan nan nan nan nan nan nan nan nan nan nan nan nan nan nan nan nan
nan nan nan nan nan nan nan nan nan nan nan nan nan nan nan nan nan nan nan nan nan nan nan nan nan nan nan nan nan nan nan nan nan nan nan nan nan nan nan nan nan nan nan nan nan nan nan nan nan nan nan nan nan nan nan nan nan nan nan nan nan nan nan nan nan nan nan nan nan nan nan nan nan nan nan nan nan nan nan nan nan nan nan nan nan nan
nan nan nan nan nan nan nan nan nan nan nan nan 0 0 nan nan nan nan nan nan nan nan nan nan nan nan nan nan nan nan nan nan nan nan nan nan nan nan nan nan nan nan nan nan nan nan nan nan nan nan nan nan nan nan nan nan nan nan nan nan nan nan nan nan nan nan nan nan nan nan nan nan nan nan nan nan nan nan nan nan nan nan nan nan nan nan